Regional Weather Roundup
Issued by NWS Memphis, TN

Home | Current Version | Previous Version | Text Only | Print | Product List | Glossary On
Versions: 1 2 3 4 5 6 7 8 9 10 11 12 13 14 15 16 17 18 19 20 21 22 23 24 25 26 27 28 29 30 31 32 33 34 35 36 37 38 39 40 41 42 43 44 45 46 47 48 49 50
000
ASUS44 KMEG 201310
RWRMEG
MEMPHIS CWA HOURLY WEATHER ROUNDUP
NATIONAL WEATHER SERVICE MEMPHIS TN
800 AM CDT SUN AUG 20 2017

...WEST TENNESSEE...

CITY           SKY/WX    TMP DP  RH WIND       PRES   REMARKS
MEMPHIS INTL   MOSUNNY   82  77  84 SW3       30.04R HX  90
NWS MEMPHIS      N/A     80 N/A N/A MISG        N/A
JACKSON        SUNNY     75  73  93 CALM      30.05R
COVINGTON      SUNNY     77  75  94 CALM      30.03S
SOMERVILLE     SUNNY     79  75  89 CALM      30.04R
BOLIVAR        SUNNY     77  75  94 CALM      30.04S
LEXINGTON      SUNNY     72  72 100 CALM      30.06S
SELMER         SUNNY     75  75 100 CALM      30.06R
SAVANNAH       SUNNY     75  73  94 CALM      30.05S
DYERSBURG      SUNNY     77  74  90 SE5       30.05R
UNION CITY     SUNNY     73  72  94 SE3       30.04R
PARIS          SUNNY     73  72  94 CALM      30.05S
HUNTINGDON     SUNNY     73  72  94 CALM      30.05S


...EASTERN ARKANSAS...

CITY           SKY/WX    TMP DP  RH WIND       PRES   REMARKS
JONESBORO      CLOUDY    80  78  94 CALM      30.02R
WEST MEMPHIS   SUNNY     79  78  97 S7        30.02R
BATESVILLE     MOSUNNY   75  72  88 E5        30.03R
NEWPORT        SUNNY     75  74  96 CALM      30.03R
WALNUT RIDGE   MOSUNNY   77  73  88 CALM      30.02R
BLYTHEVILLE    MOSUNNY   79  76  90 CALM      30.03R
SEARCY         MOSUNNY   78  75  90 CALM      30.04R
PINE BLUFF     SUNNY     78  74  87 SW3       30.02R
MONTICELLO     SUNNY     80  73  79 W6        30.03R


...NORTH MISSISSIPPI...

CITY           SKY/WX    TMP DP  RH WIND       PRES   REMARKS
TUPELO         SUNNY     82  74  76 SW3       30.05R
BATESVILLE     SUNNY     78  74  88 CALM      30.05R
OLIVE BRANCH   MOSUNNY  N/A N/A N/A CALM      30.04R
TUNICA           N/A     77  73  88 CALM      30.04R
CLARKSDALE       N/A     79  79 100 CALM      30.03S
GREENWOOD      SUNNY     77  75  93 CALM      30.04R
COLUMBUS       SUNNY     79  79 100 W3        30.05R
STARKVILLE     SUNNY     77  73  88 CALM      30.07R
GOLDEN TRIANGL SUNNY     81  72  74 CALM      30.01R


...SOUTHEAST MISSOURI...

CITY           SKY/WX    TMP DP  RH WIND       PRES   REMARKS
KENNETT        SUNNY     77  75  94 CALM      30.02R FOG
MALDEN         SUNNY     77  73  88 SW3       30.05R
WEST PLAINS    MOSUNNY   78  73  84 SW5       30.07R
POPLAR BLUFF   MOSUNNY   73  73 100 CALM      30.03R FOG
CAPE GIRARDEAU SUNNY     74  72  93 SE5       30.03R FOG


...NORTHWEST ALABAMA...

CITY           SKY/WX    TMP DP  RH WIND       PRES   REMARKS
MUSCLE SHOALS  SUNNY     77  73  87 SE3       30.08R


...MIDDLE TENNESSEE...

CITY           SKY/WX    TMP DP  RH WIND       PRES   REMARKS
NASHVILLE      MOSUNNY   76  71  85 CALM      30.09R
CLARKSVILLE    SUNNY     73  71  93 CALM      30.08R
COLUMBIA       MOSUNNY   72  72 100 CALM      30.07R


...WESTERN KENTUCKY...

CITY           SKY/WX    TMP DP  RH WIND       PRES   REMARKS
PADUCAH        SUNNY     74  70  87 SE3       30.04R
FORT CAMPBELL  SUNNY     74  71  92 CALM      30.07R


...CENTRAL ARKANSAS...

CITY           SKY/WX    TMP DP  RH WIND       PRES   REMARKS
LITTLE ROCK    MOSUNNY   79  78  97 SW3       30.02R


SKY/WX REPORTED AS FAIR MEANS FEW OR NO CLOUDS BELOW
12 THOUSAND FEET.




USA.gov is the U.S. government's official web portal to all federal, state and local government web resources and services.